Sabadell, Spain

8:39 PM CEST en Octubre 17, 2017 (GMT +0200)
Sabadell

Tiempo Historia de LELL - Octubre, 2017

Change the Weather History Date:

Viernes, Octubre 13, 2017

  Actual Average (LEBL) Record (LEBL)
Temperature  
Temperatura media 69 ° F -  
Temperatura máxima 78 ° F 70 ° F 78 ° F (2011)
Temperatura mínima 60 ° F 57 ° F 51 ° F (2000)
Cooling Degree Days 4    
Growing Degree Days 19 (Base 50)    
Moisture  
Punto de rocío 63 ° F    
Average Humidity 83    
Maximum Humidity 100    
Minimum Humidity 61    
Precipitación  
Precipitación 0.00 pul - - ()
Presión al nivel del mar  
Presión al nivel del mar 30.29 pul    
Viento  
Velocidad del viento 2 mph ()    
Velocidad máxima del viento 12 mph    
Max Gust Speed -    
Visibilidad 5.9 Millas    
Eventos      
Averages and records for this station are not official NWS values.
T = Trace of Precipitation, MM = Missing Value Source: Averaged Metar Reports

Daily Weather History Graph

Daily Weather History Graph

Search for Another Location

Airport or City:

Trip Planner

Search our weather history database for the weather conditions in past years. The results will help you decide how hot, cold, wet, or windy it might be!

Date:

Astronomía

Oct. 13, 2017 Salida Puesta
Hora real 8:01 AM CEST 7:13 PM CEST
Crepúsculo civil 7:33 AM CEST 7:41 PM CEST
Crepúsculo náutico 7:01 AM CEST 8:13 PM CEST
Crepúsculo astronómico 6:29 AM CEST 8:45 PM CEST
Luna 1:03 AM CEST (10/13) 3:50 PM CEST (10/13)
Horas de luz 12h 07m
Horas de luz
11h 12m
Cuarto menguante, 40% of the Moon is Illuminated
Oct 13
Cuarto menguante
Oct 19
Nueva
Oct 28
Cuarto creciente
Nov 4
Luna llena
Nov 10
Cuarto menguante

Hourly Weather History & Observations

Hora (CEST) Temp. Punto de rocío Humedad Presión Visibilidad Wind Dir Velocidad del viento Velocidad de ráfagas Precip Eventos Condiciones
12:00 AM 64.4 ° F 62.6 ° F 94% 30.30 pul 6.2 mi Sin viento Sin viento - N/A   Desconocido
12:30 AM 64.4 ° F 62.6 ° F 94% 30.30 pul 6.2 mi ONO 3.5 mph - N/A   Desconocido
1:00 AM 64.4 ° F 62.6 ° F 94% 30.30 pul 5.6 mi Sin viento Sin viento - N/A   Desconocido
1:30 AM 64.4 ° F 62.6 ° F 94% 30.30 pul 5.6 mi Sin viento Sin viento - N/A   Desconocido
2:00 AM 62.6 ° F 60.8 ° F 94% 30.30 pul 5.6 mi Sin viento Sin viento - N/A   Desconocido
2:30 AM 64.4 ° F 62.6 ° F 94% 30.30 pul 5.0 mi Sin viento Sin viento - N/A   Muy nublado
3:00 AM 64.4 ° F 64.4 ° F 100% 30.30 pul 4.3 mi Variable 1.2 mph - N/A   Muy nublado
3:30 AM 66.2 ° F 64.4 ° F 94% 30.30 pul 5.0 mi Oeste 3.5 mph - N/A   Muy nublado
4:00 AM 66.2 ° F 64.4 ° F 94% 30.30 pul - Oeste 1.2 mph - N/A   Parcialmente nublado
4:30 AM 64.4 ° F 62.6 ° F 94% 30.30 pul - Variable 1.2 mph - N/A   Desconocido
5:00 AM 64.4 ° F 62.6 ° F 94% 30.27 pul - OSO 1.2 mph - N/A   Desconocido
5:30 AM 62.6 ° F 60.8 ° F 94% 30.27 pul - Oeste 1.2 mph - N/A   Desconocido
6:00 AM 60.8 ° F 60.8 ° F 100% 30.27 pul - Sin viento Sin viento - N/A   Desconocido
6:30 AM 60.8 ° F 59.0 ° F 94% 30.27 pul - Sin viento Sin viento - N/A   Desconocido
7:00 AM 60.8 ° F 59.0 ° F 94% 30.27 pul - Sin viento Sin viento - N/A   Desconocido
7:30 AM 60.8 ° F 59.0 ° F 94% 30.27 pul - Sin viento Sin viento - N/A   Desconocido
8:00 AM 60.8 ° F 59.0 ° F 94% 30.27 pul 5.6 mi Sin viento Sin viento - N/A   Desconocido
8:30 AM 60.8 ° F 59.0 ° F 94% 30.30 pul - Sin viento Sin viento - N/A   Despejado
9:00 AM 60.8 ° F 60.8 ° F 100% 30.30 pul - Sin viento Sin viento - N/A   Despejado
9:30 AM 62.6 ° F 62.6 ° F 100% 30.30 pul - Variable 1.2 mph - N/A   Despejado
10:00 AM 66.2 ° F 62.6 ° F 88% 30.30 pul - Sin viento Sin viento - N/A   Despejado
10:30 AM 68.0 ° F 60.8 ° F 78% 30.30 pul - Sin viento Sin viento - N/A   Despejado
11:00 AM 69.8 ° F 62.6 ° F 78% 30.33 pul - Sin viento Sin viento - N/A   Despejado
11:30 AM 71.6 ° F 62.6 ° F 73% 30.33 pul - Sin viento Sin viento - N/A   Despejado
12:00 PM 75.2 ° F 62.6 ° F 65% 30.33 pul - Sin viento Sin viento - N/A   Despejado
12:30 PM 75.2 ° F 62.6 ° F 65% 30.33 pul - Sin viento Sin viento - N/A   Despejado
1:00 PM 77.0 ° F 62.6 ° F 61% 30.30 pul - Variable 2.3 mph - N/A   Despejado
1:30 PM 78.8 ° F 64.4 ° F 61% 30.30 pul - Este 1.2 mph - N/A   Despejado
2:00 PM 77.0 ° F 64.4 ° F 65% 30.30 pul - ESE 5.8 mph - N/A   Despejado
2:30 PM 77.0 ° F 64.4 ° F 65% 30.27 pul 6.2 mi Este 5.8 mph - N/A   Parcialmente nublado
3:00 PM 77.0 ° F 64.4 ° F 65% 30.27 pul 6.2 mi Este 6.9 mph - N/A   Parcialmente nublado
3:30 PM 78.8 ° F 64.4 ° F 61% 30.27 pul 6.2 mi ESE 10.4 mph - N/A   Parcialmente nublado
4:00 PM 78.8 ° F 64.4 ° F 61% 30.27 pul 6.2 mi ESE 10.4 mph - N/A   Parcialmente nublado
4:30 PM 77.0 ° F 66.2 ° F 69% 30.27 pul 6.2 mi ESE 11.5 mph - N/A   Parcialmente nublado
5:00 PM 77.0 ° F 64.4 ° F 65% 30.27 pul 6.2 mi ESE 10.4 mph - N/A   Parcialmente nublado
5:30 PM 75.2 ° F 64.4 ° F 69% 30.27 pul 6.2 mi SE 9.2 mph - N/A   Parcialmente nublado
6:00 PM 75.2 ° F 64.4 ° F 69% 30.27 pul 6.2 mi ESE 8.1 mph - N/A   Parcialmente nublado
7:00 PM 73.4 ° F 64.4 ° F 73% 30.27 pul 6.2 mi ESE 4.6 mph - N/A   Parcialmente nublado
7:30 PM 71.6 ° F 64.4 ° F 78% 30.27 pul 6.2 mi ESE 5.8 mph - N/A   Desconocido
8:00 PM 71.6 ° F 64.4 ° F 78% 30.30 pul 6.2 mi Variable 2.3 mph - N/A   Desconocido
8:30 PM 69.8 ° F 64.4 ° F 83% 30.30 pul 6.2 mi Variable 1.2 mph - N/A   Desconocido
9:30 PM 66.2 ° F 62.6 ° F 88% 30.30 pul 6.2 mi ONO 2.3 mph - N/A   Desconocido
10:00 PM 64.4 ° F 62.6 ° F 94% 30.30 pul 6.2 mi Oeste 4.6 mph - N/A   Desconocido
10:30 PM 64.4 ° F 62.6 ° F 94% 30.30 pul 6.2 mi Oeste 4.6 mph - N/A   Desconocido
11:00 PM 64.4 ° F 60.8 ° F 88% 30.30 pul 6.2 mi Oeste 3.5 mph - N/A   Desconocido
11:30 PM 64.4 ° F 62.6 ° F 94% 30.30 pul 6.2 mi ONO 3.5 mph - N/A   Desconocido